[Date Prev][Date Next][Thread Prev][Thread Next] - [Date Index][Thread Index][Author Index]
2 Line ISS Keps 6-12
- Subject: [sarex] 2 Line ISS Keps 6-12
- From: "Dave Larsen PhD" <doc@xxxxxxxxxxx>
- Date: Thu, 12 Jun 2003 04:02:24 -0700
ISS
1 25544U 98067A 03163.12151292 .00018414 00000-0 23383-3 0 1099
2 25544 51.6334 45.6948 0006662 241.0693 281.9121 15.59444548260219
----
Via the sarex mailing list at AMSAT.ORG courtesy of AMSAT-NA.
To unsubscribe, send "unsubscribe sarex" to Majordomo@amsat.org
AMSAT Home